FW5715 Weather Reports


time (UTC)temp
F
wind
direction
speed
knots
gust
knots
rain 1hr
in
rain 24hr
in
rain mn
in
humidity
%
barometer
mb
20260504185516 70 225 3.5 12.2 0.00 0.00 0.00 42 1006.6
20260504184517 71 203 2.6 20.9 0.00 0.00 0.00 45 1006.8
20260504183516 70 225 3.5 11.3 0.00 0.00 0.00 43 1006.8
20260504182516 70 180 3.5 13.9 0.00 0.00 0.00 44 1006.9
20260504181557 69 180 7.8 20.0 0.00 0.00 0.00 49 1007.0
20260504180516 69 180 8.7 17.4 0.00 0.00 0.00 51 1007.1
20260504175516 68 180 7.8 20.0 0.00 0.00 0.00 48 1007.1
20260504174516 69 180 4.3 17.4 0.00 0.00 0.00 48 1007.4
20260504173516 69 180 6.1 15.6 0.00 0.00 0.00 46 1007.5
20260504172516 69 180 8.7 20.0 0.00 0.00 0.00 49 1007.4
20260504171516 69 203 3.5 14.8 0.00 0.00 0.00 46 1007.5
20260504170516 68 180 7.0 18.2 0.00 0.00 0.00 48 1007.8
20260504150536 62 180 5.2 10.4 0.00 0.00 0.00 55 1008.9
20260504140516 59 203 3.5 17.4 0.00 0.00 0.00 57 1009.1
20260504130516 56 180 0.9 7.0 0.00 0.00 0.00 61 1009.4
20260504110516 49 180 5.2 10.4 0.00 0.00 0.00 66 1009.2
20260504100516 49 203 3.5 8.7 0.00 0.00 0.00 64 1009.3
20260504081517 49 180 6.1 10.4 0.00 0.00 0.00 64 1010.3
20260504080518 49 203 5.2 10.4 0.00 0.00 0.00 64 1010.4
20260504050517 48 180 2.6 6.1 0.00 0.00 0.00 62 1012.2
20260504045517 48 180 3.5 7.0 0.00 0.00 0.00 61 1012.3
20260504044517 48 203 2.6 10.4 0.00 0.00 0.00 61 1012.3
20260504043517 48 180 1.7 6.1 0.00 0.00 0.00 61 1012.4
20260504042517 48 203 2.6 8.7 0.00 0.00 0.00 61 1012.4
20260504041517 48 203 0.9 4.3 0.00 0.00 0.00 61 1012.4
20260504040517 48 203 2.6 7.0 0.00 0.00 0.00 61 1012.3
20260504035517 48 180 3.5 7.0 0.00 0.00 0.00 63 1012.5
20260504034517 48 180 3.5 7.8 0.00 0.00 0.00 60 1012.5
20260504033517 49 180 1.7 6.1 0.00 0.00 0.00 59 1012.5
20260504032517 49 203 1.7 6.1 0.00 0.00 0.00 59 1012.6
20260504031517 49 203 0.9 4.3 0.00 0.00 0.00 59 1012.6
20260504030517 49 203 3.5 7.8 0.00 0.00 0.00 58 1012.7
20260504025517 50 180 0.9 6.1 0.00 0.00 0.00 57 1012.6
20260504024537 50 203 2.6 7.0 0.00 0.00 0.00 57 1012.8
20260504023517 50 180 0.9 6.1 0.00 0.00 0.00 56 1012.8
20260504022517 50 180 2.6 7.0 0.00 0.00 0.00 57 1012.7
20260504021517 50 0.0 3.5 0.00 0.00 0.00 56 1012.8
20260504020517 51 0.0 0.0 0.00 0.00 0.00 56 1012.7
20260504015517 51 0.0 1.7 0.00 0.00 0.00 56 1012.5
20260504014517 51 0.0 0.9 0.00 0.00 0.00 55 1012.6
20260504013517 51 0.0 0.9 0.00 0.00 0.00 54 1012.5
20260504012517 52 0.0 2.6 0.00 0.00 0.00 54 1012.3
20260504011517 52 0.0 0.0 0.00 0.00 0.00 53 1012.5
20260504010517 52 0.0 1.7 0.00 0.00 0.00 52 1012.3
20260504005517 53 0.0 4.3 0.00 0.00 0.00 52 1012.3
20260504004517 53 0.0 0.9 0.00 0.00 0.00 51 1012.2
20260504003517 53 0.0 1.7 0.00 0.00 0.00 51 1012.2
20260504002517 54 0.0 5.2 0.00 0.00 0.00 50 1012.2
20260504001517 55 203 0.9 8.7 0.00 0.00 0.00 48 1012.1
20260504000517 55 0.0 5.2 0.00 0.00 0.00 48 1011.9
20260503235517 55 0.0 5.2 0.00 0.00 0.00 47 1012.0
20260503234517 56 248 0.9 6.1 0.00 0.00 0.00 47 1011.9
20260503233517 56 0.0 5.2 0.00 0.00 0.00 47 1011.9
20260503232517 56 0.0 2.6 0.00 0.00 0.00 45 1012.0
20260503231517 56 0.0 0.9 0.00 0.00 0.00 46 1012.0
20260503230517 56 0.0 1.7 0.00 0.00 0.00 45 1012.1
20260503225517 56 180 0.9 8.7 0.00 0.00 0.00 46 1011.9
20260503224517 56 0.0 6.1 0.00 0.00 0.00 46 1012.0
20260503223517 56 248 0.9 10.4 0.00 0.00 0.00 44 1012.0
20260503222517 56 0.0 0.9 0.00 0.00 0.00 46 1012.1
20260503221517 56 203 0.9 7.0 0.00 0.00 0.00 43 1012.1
20260503220517 57 0.0 5.2 0.00 0.00 0.00 44 1012.3
20260503215517 57 270 1.7 9.6 0.00 0.00 0.00 45 1012.2
20260503214516 57 0.0 7.8 0.00 0.00 0.00 46 1012.1
20260503213517 57 0.0 5.2 0.00 0.00 0.00 44 1011.9
20260503212517 58 270 2.6 11.3 0.00 0.00 0.00 42 1011.9
20260503211516 59 225 0.9 8.7 0.00 0.00 0.00 43 1012.0
20260503210517 58 203 2.6 13.0 0.00 0.00 0.00 43 1011.9
20260503205516 59 203 1.7 13.0 0.00 0.00 0.00 40 1012.0
20260503204557 59 248 0.9 10.4 0.00 0.00 0.00 42 1012.1
20260503203516 59 270 1.7 12.2 0.00 0.00 0.00 44 1012.2
20260503202516 57 270 4.3 13.9 0.00 0.00 0.00 40 1012.3
20260503201517 58 270 6.1 13.9 0.00 0.00 0.00 36 1012.4
20260503200517 59 270 0.9 11.3 0.00 0.00 0.00 40 1012.4
20260503195517 58 270 4.3 13.0 0.00 0.00 0.00 38 1012.6
20260503194516 59 270 1.7 12.2 0.00 0.00 0.00 41 1012.9
20260503193516 58 293 1.7 13.0 0.00 0.00 0.00 41 1013.0
20260503192537 57 270 2.6 13.9 0.00 0.00 0.00 42 1013.1
20260503191536 58 270 4.3 14.8 0.00 0.00 0.00 41 1013.4
20260503190516 58 0.0 6.1 0.00 0.00 0.00 46 1013.5